Location: *
(28.2408°N, 53.4600°E)
Time: 06:15:55
(UTC+00:00)

Envisat - Pass Details

Date: 22 September 2019
Orbit: 764 x 766 km, 98.1° (Epoch: 19 October)

Event Time Altitude Azimuth Distance (km) Brightness Sun altitude
Rises 14:43:11 0° 167° (SSE) 3,217 6.1 -5.2°
Reaches altitude 10° 14:45:28 10° 167° (SSE) 2,294 5.3 -5.7°
Maximum altitude 14:50:32 89° 85° (E) 770 3.0 -6.8°
Drops below altitude 10° 14:55:38 10° 348° (NNW) 2,304 5.7 -7.9°
Sets 14:57:56 0° 349° (NNW) 3,233 6.5 -8.4°
